Regional Weather Roundup
Issued by NWS

Home | Current Version | Previous Version | Graphics & Text | Print | Product List | Glossary On
Versions: 1 2 3 4 5 6 7 8 9 10 11 12 13 14 15 16 17 18 19 20 21 22 23 24 25 26 27 28 29 30 31 32 33 34 35 36 37 38 39 40 41 42 43 44 45 46 47 48 49 50
000
ASUS43 KLOT 230007
RWRIL

ILLINOIS REGIONAL WEATHER ROUNDUP
NATIONAL WEATHER SERVICE CHICAGO/ROMEOVILLE IL
700 PM CDT WED MAR 22 2017

NOTE: "FAIR" INDICATES FEW OR NO CLOUDS BELOW 12,000 FEET WITH NO
SIGNIFICANT WEATHER AND/OR OBSTRUCTIONS TO VISIBILITY.

* THESE STATIONS ARE NOT UNDER NWS QUALITY CONTROL. THEY ALSO MAY NOT
  REPORT WEATHER SUCH AS PRECIPITATION OR FOG.

ILZ001-002-007-009-015-016-024-230100-
NORTHWEST ILLINOIS

CITY           SKY/WX    TMP DP  RH WIND       PRES   REMARKS
MOLINE         MOCLDY    41  21  44 SE10      30.43F
6HR MIN TEMP:  40; 6HR MAX TEMP:  45;

STERLING*      PTCLDY    39  21  48 SE8       30.46S WCI  33
SAVANNA*       MOCLDY    38  19  45 S7        30.45S WCI  33
$$

ILZ003-004-008-010-011-017-018-230100-
NORTH CENTRAL ILLINOIS

CITY           SKY/WX    TMP DP  RH WIND       PRES   REMARKS
ROCKFORD       CLOUDY    39  17  41 E10       30.48F WCI  32
6HR MIN TEMP:  38; 6HR MAX TEMP:  42;

FREEPORT*      PTCLDY    38  17  43 SE9       30.46F WCI  32
ROCHELLE*      PTCLDY    37  19  46 E13       30.46F WCI  29
DE KALB*       PTCLDY    35  18  49 E10       30.47F WCI  27
PERU*          PTCLDY    38  19  45 E8        30.46S WCI  32
$$

ILZ005-006-012>014-019>023-230100-
NORTHEAST ILLINOIS

CITY           SKY/WX    TMP DP  RH WIND       PRES   REMARKS
CHICAGO-OHARE  CLOUDY    31  17  56 NE9       30.50F WCI  23
6HR MIN TEMP:  31; 6HR MAX TEMP:  37;

CHICAGO-MIDWAY MOCLDY    31  18  58 N8        30.51F WCI  23
6HR MIN TEMP:  31; 6HR MAX TEMP:  35;

AURORA         PTCLDY    36  16  44 E10       30.48S WCI  28
6HR MIN TEMP:  36; 6HR MAX TEMP:  42;

LANSING*       CLOUDY    31  22  71 NE8       30.51F WCI  23
JOLIET*        PTCLDY    35  19  51 E8        30.49S WCI  28
WAUKEGAN       PTCLDY    27  18  69 NE7       30.51F WCI  19
6HR MIN TEMP:  27; 6HR MAX TEMP:  33;

DUPAGE AIRPORT PTCLDY    32  17  54 E9        30.48F WCI  24
6HR MIN TEMP:  32; 6HR MAX TEMP:  39;

KANKAKEE*      CLEAR     37  18  47 CALM      30.49R
WHEELING       PTCLDY    28  18  66 E7        30.52F WCI  21
6HR MIN TEMP:  28; 6HR MAX TEMP:  34;

MORRIS*        PTCLDY    35  18  49 E6        30.47F WCI  30
ROMEOVILLE*    CLOUDY    32  21  64 E10       30.49S WCI  24
NORTHERLY ISL    N/A     29  19  66 N8          N/A  WCI  21
$$

LMZ740>746-230100-
SOUTHERN LAKE MICHIGAN

STATION/POSITION SKY/WX   TEMP    WIND        PRES    VSBY  WAVE
                          AIR SEA DIR/SP/G                  HT/PER
                          (F)     (DEG/KT/KT) (MB)    (MI)  (FT/S)
HARRISON CRIB              30      30/  8/  9   N/A
BURNHAM HARBOR             29      30/  6/  9   N/A
CALUMET HARBOR             29      20/  7/  9 1032.7F
BURNS HARBOR               31      50/ 12/ 13 1033.5S
MICHIGAN CITY              30      30/ 13/ 15   N/A
$$

ILZ025>027-034>036-040-047-049-050-058-095>099-230100-
WEST-CENTRAL ILLINOIS

CITY           SKY/WX    TMP DP  RH WIND       PRES   REMARKS
QUINCY         CLOUDY    46   9  22 E13       30.37S
GALESBURG*     MOCLDY    39  20  46 E8        30.42S WCI  34
MACOMB*        PTCLDY    43  14  31 E10       30.43F
JACKSONVILLE*  CLOUDY    44  14  30 E12       30.40S
PITTSFIELD*    CLOUDY    46  10  23 E8        30.39S
$$

ILZ028>032-037-038-041>044-048-051>054-059>061-230100-
CENTRAL ILLINOIS

CITY           SKY/WX    TMP DP  RH WIND       PRES   REMARKS
PONTIAC        PTCLDY    37  24  57 E7        30.47S WCI  32
BLOOMINGTON    PTCLDY    36  20  52 E12       30.44F WCI  28
DECATUR        PTCLDY    40  16  37 E14       30.43R
PEORIA         MOCLDY    40  19  43 E9        30.45R
6HR MIN TEMP:  38; 6HR MAX TEMP:  44;

LACON*         PTCLDY    38  20  49 E8        30.45S WCI  32
LINCOLN*       PTCLDY    41  21  45 E9        30.44R
SPRINGFIELD    PTCLDY    44  14  29 E12       30.42S
6HR MIN TEMP:  44; 6HR MAX TEMP:  49;

TAYLORVILLE    PTCLDY    43  12  28 NE9       30.41S
6HR MIN TEMP:  42; 6HR MAX TEMP:  47;

$$

ILZ033-039-045-046-055>057-062-063-230100-
EAST-CENTRAL ILLINOIS

CITY           SKY/WX    TMP DP  RH WIND       PRES   REMARKS
CHAMPAIGN      PTCLDY    39  19  44 E13       30.43S WCI  31
RANTOUL*       CLEAR     38  25  58 E9        30.45R WCI  32
MATTOON        PTCLDY    40  19  43 NE10      30.41S
PARIS*         CLEAR     38  23  53 NE13      30.44S WCI  30
$$

ILZ079-100>102-230100-
SOUTHWEST ILLINOIS

CITY           SKY/WX    TMP DP  RH WIND       PRES   REMARKS
ALTON          MOCLDY    46  16  29 E9        30.38S
BELLEVILLE     CLEAR     47  18  32 E6        30.37S
CAHOKIA*       CLEAR     48  18  30 E10       30.37S
SPARTA*        CLEAR     48  21  34 E9        30.37S
$$

ILZ064>066-069>071-074>076-080>082-084>086-088>090-092>094-230100-
SOUTH-CENTRAL ILLINOIS

CITY           SKY/WX    TMP DP  RH WIND       PRES   REMARKS
CARBONDALE     CLEAR     48  23  37 NE9       30.36F
6HR MIN TEMP:  48; 6HR MAX TEMP:  53;

CAIRO*         CLEAR     52  27  37 NE9       30.34S
EFFINGHAM*     PTCLDY   N/A N/A N/A E7        30.42S
MT. VERNON     MOCLDY    46  21  37 E6        30.39R
CENTRALIA*     CLOUDY    47  24  40 E9        30.38S
SALEM*         CLEAR     46  17  31 E6        30.39S
METROPOLIS*    CLOUDY    51  20  29 NE6       30.36S
$$

ILZ067-068-072-073-078-083-087-091-230100-
SOUTHEAST ILLINOIS

CITY           SKY/WX    TMP DP  RH WIND       PRES   REMARKS
LAWRENCEVILLE  PTCLDY    45  15  30 NE12      30.42R
FLORA*         PTCLDY    47  21  35 NE9       30.40S
FAIRFIELD*     CLEAR     46  19  35 NE6       30.38S
HARRISBURG*    CLEAR     48  23  37 NE7       30.38R
ROBINSON*      PTCLDY    42  17  36 E7        30.44R
CARMI*         CLEAR     47  18  31 NE8       30.38S
$$

ABBREVIATIONS USED IN REMARKS
   TC - TEMPERATURE IN CELSIUS
  WCI - WIND CHILL INDEX
   HX - HEAT INDEX
  VSB - VISIBILITY
$$





USA.gov is the U.S. government's official web portal to all federal, state and local government web resources and services.